ECMWFFLT2_850_thetae_132.txt.gz
Theta_e
335 337 331 327 328 329 332 332 331 332 333 333 333 333 334 334 333 333 331 330 325 319 318 315 310 308 309 310 310 308 308 310 311 313 313 313 312 312 312 313 313 313 315 314 313 313 311 315 321 322 323 322 325 331 331 331 331 331 332 332 332 332
337 338 335 331 331 329 330 332 331 331 332 332 332 332 333 333 332 331 331 329 319 315 318 314 308 309 309 310 310 308 308 309 310 311 312 312 312 311 311 311 312 312 313 312 313 317 316 322 329 328 327 329 330 332 332 332 333 332 333 333 333 333
338 339 338 334 334 330 328 332 331 331 332 332 332 332 332 332 332 330 329 324 314 320 327 316 308 310 310 310 310 309 309 309 309 309 310 310 310 311 311 310 311 311 312 314 320 326 327 329 331 329 329 330 331 332 333 334 334 333 333 333 333 333
339 339 339 336 336 331 328 334 333 332 333 333 334 333 334 334 333 330 324 319 319 329 329 315 308 310 310 310 310 309 309 309 309 309 310 310 310 310 309 310 312 312 316 323 328 330 331 330 330 330 329 331 333 333 333 334 334 333 334 334 334 333
340 339 340 337 336 331 330 337 336 335 335 335 336 337 338 337 337 333 321 317 322 325 320 310 308 310 310 310 310 309 310 309 310 310 310 310 310 312 313 317 322 323 325 328 330 330 329 330 329 330 331 333 334 334 335 334 334 335 335 335 334 333
341 340 339 337 338 334 332 338 340 338 337 338 339 340 340 338 340 334 321 320 321 319 320 316 313 316 314 310 310 309 310 310 310 310 313 316 314 319 326 328 330 330 330 330 331 329 329 330 329 330 333 334 334 335 336 335 335 336 335 334 334 333
340 340 339 337 340 337 334 340 342 340 339 339 339 341 340 340 339 329 324 326 320 320 332 329 320 326 326 318 316 317 318 317 315 316 323 330 326 327 333 333 332 332 331 331 332 331 332 333 332 333 334 335 335 335 336 336 336 336 335 334 333 332
341 340 339 338 339 337 337 341 342 340 340 340 340 341 341 341 335 323 324 325 318 322 336 336 329 331 334 330 327 329 331 328 326 328 329 334 334 331 333 333 333 333 333 333 334 334 335 335 335 335 334 335 336 336 336 336 336 336 334 333 333 331
341 339 337 339 339 337 338 341 342 341 341 340 340 340 341 340 330 322 322 321 323 329 335 338 335 333 335 334 333 333 334 331 331 333 331 331 333 331 333 335 335 334 335 336 335 336 336 335 335 334 335 335 336 335 336 336 336 335 334 332 332 332
341 337 337 339 339 337 339 340 341 341 340 340 340 340 341 337 328 325 325 326 330 334 336 339 338 336 336 335 335 334 334 333 332 333 332 331 332 333 335 336 336 336 336 336 335 336 335 335 335 335 335 335 335 335 336 336 336 335 333 332 332 332
339 337 337 339 338 338 339 340 341 341 339 340 340 340 340 333 326 326 328 330 332 334 337 339 338 338 338 337 336 334 333 332 332 334 334 333 334 335 335 335 337 338 337 336 336 335 334 335 334 334 335 335 335 335 336 336 336 334 333 332 332 331
338 337 338 338 338 338 339 339 339 340 339 339 340 339 338 330 327 331 330 330 332 334 336 337 339 339 338 336 333 333 333 332 332 334 334 334 335 334 332 334 337 337 336 336 336 335 334 334 334 334 335 336 336 336 336 336 335 334 333 332 331 330
336 337 339 338 339 339 338 338 337 339 339 339 339 337 336 331 332 335 332 331 332 334 335 336 339 338 336 334 333 334 334 333 333 333 332 332 334 332 331 334 336 336 335 335 336 334 333 333 334 334 335 336 336 335 335 334 333 332 332 332 331 330
335 337 339 338 339 339 339 339 337 339 339 338 337 336 335 333 333 334 334 334 334 335 337 337 337 334 332 333 334 333 332 333 334 332 331 331 334 334 334 334 334 335 335 334 334 332 332 333 334 335 336 336 335 334 332 331 331 330 330 330 330 329
335 335 338 338 339 340 339 338 338 339 339 337 335 336 336 334 333 334 336 336 336 337 338 337 335 333 331 330 331 330 330 332 332 332 331 332 332 333 335 333 331 335 335 333 333 332 332 333 334 335 335 335 333 332 331 330 329 328 328 327 327 327
336 334 336 339 339 339 339 338 338 338 337 337 336 335 335 333 333 336 336 337 338 337 336 335 334 333 331 330 331 331 331 332 332 331 330 332 331 330 333 330 331 335 334 332 333 332 333 333 333 334 333 332 331 331 330 328 327 326 326 326 325 326
336 334 336 339 338 339 339 339 340 338 336 337 337 336 335 334 336 337 337 338 338 335 333 334 334 331 329 330 331 332 331 332 332 330 330 332 329 329 330 327 330 334 332 333 333 332 333 332 332 333 332 331 331 330 329 327 326 324 323 324 326 326
334 334 337 339 338 338 338 338 339 337 337 338 338 338 336 335 336 337 337 337 337 334 332 333 332 330 330 330 330 332 332 332 331 330 330 330 327 329 329 326 331 334 331 332 333 333 333 332 332 333 332 331 330 329 327 325 324 323 322 324 326 326
333 335 338 338 338 337 335 335 336 337 338 338 338 337 336 335 335 335 336 336 334 334 333 333 332 331 330 330 331 332 332 331 330 329 328 327 327 329 328 328 333 334 332 331 330 331 333 333 333 333 331 329 327 326 324 324 322 322 323 325 325 321
334 337 338 337 337 336 333 333 335 337 338 338 337 336 334 334 334 335 336 334 333 333 333 332 331 331 329 329 332 332 332 331 329 329 328 327 327 327 329 332 333 332 332 333 330 328 331 333 333 332 329 327 326 325 324 323 323 323 323 320 315 309
335 337 337 335 336 334 332 332 334 337 338 336 336 335 333 334 334 334 334 334 333 333 332 331 332 332 330 330 331 331 332 330 329 330 330 328 328 329 331 333 332 331 330 331 328 324 329 334 333 332 330 328 328 327 325 324 323 321 315 308 304 302
334 334 334 335 335 333 331 332 334 336 336 335 335 334 333 334 333 333 335 335 334 332 332 332 333 334 332 331 331 331 331 330 330 331 330 330 330 330 331 331 333 332 329 326 321 320 327 333 333 332 332 330 329 328 327 326 324 319 309 301 301 301
335 332 333 336 335 331 331 333 334 335 336 335 334 334 334 333 332 334 335 334 333 332 332 333 334 334 333 331 331 331 331 331 331 331 331 331 330 330 329 328 330 331 331 326 318 315 321 329 332 333 332 331 330 328 326 326 325 322 312 303 302 302
337 333 334 337 335 331 334 336 336 336 335 334 335 334 334 334 333 334 335 333 332 333 333 334 334 334 333 332 331 330 332 333 333 332 332 331 329 327 326 324 327 330 332 329 325 318 316 324 332 333 332 332 331 329 326 325 324 321 315 310 309 305
338 336 336 338 335 334 337 338 337 335 334 335 336 335 334 334 334 334 334 332 332 333 334 334 334 334 333 333 331 331 332 333 332 331 331 329 327 325 322 321 325 330 330 329 329 323 315 321 330 330 332 332 331 330 328 325 322 319 316 316 316 310
339 338 337 339 337 336 337 337 337 335 334 336 336 334 334 334 334 334 333 332 333 333 333 334 335 334 334 333 333 332 332 332 331 331 330 328 326 324 321 318 320 326 329 328 327 320 311 313 317 319 326 329 328 328 327 324 321 319 316 316 317 314
340 338 338 338 337 336 337 337 336 336 335 335 335 334 333 334 335 334 333 332 333 332 333 334 334 333 333 333 332 332 331 331 330 330 329 327 325 322 320 317 316 319 321 322 323 320 312 309 307 308 315 320 323 325 325 323 321 319 317 316 317 315
340 339 339 338 336 337 338 337 337 337 335 335 335 334 334 335 335 333 332 333 333 332 333 334 333 332 332 331 331 330 331 330 330 329 327 326 324 321 317 315 314 313 312 314 317 318 313 307 304 303 305 308 312 317 322 323 320 317 316 318 317 313
339 339 339 338 337 338 338 338 337 336 336 335 334 334 334 334 334 333 333 333 332 333 334 333 331 331 331 331 330 330 330 330 329 328 326 324 321 318 315 313 312 311 310 309 310 310 308 305 303 303 302 303 304 307 313 316 316 314 313 315 315 311
340 339 339 338 338 339 338 338 338 337 336 335 334 334 334 334 332 332 332 332 332 333 333 332 331 331 331 330 330 329 329 329 328 327 325 323 319 316 313 311 310 309 307 305 304 303 303 303 303 303 302 302 302 302 303 305 308 310 310 311 312 310
340 339 339 339 339 339 338 338 338 336 336 335 335 335 334 333 332 332 332 332 332 333 333 332 331 331 330 330 329 329 328 327 326 325 323 321 317 313 311 310 308 305 303 302 302 302 302 302 302 302 302 302 302 302 302 302 303 307 309 311 313 311
339 339 339 339 339 339 338 338 338 336 336 334 334 334 334 333 332 332 332 332 333 333 332 332 331 331 330 330 329 328 327 325 324 322 321 318 315 311 309 308 305 303 302 302 302 302 302 302 301 302 302 302 302 301 301 302 302 303 307 311 315 313
339 339 339 338 338 338 338 337 336 336 336 335 334 333 333 333 333 332 332 333 332 332 332 332 331 330 329 328 327 327 326 324 323 321 319 315 312 309 307 304 303 302 302 302 302 302 302 302 302 302 301 301 301 301 301 301 301 301 303 308 313 314
339 339 338 338 338 338 338 336 335 335 335 335 334 333 332 333 333 332 332 333 332 332 332 331 330 329 328 327 327 326 325 322 321 318 315 312 309 307 304 302 302 302 301 301 301 301 302 302 301 301 301 301 301 301 300 300 300 300 300 303 308 311
339 339 338 338 338 338 338 336 335 335 336 335 334 332 332 333 332 331 332 333 332 331 331 330 329 328 327 327 327 326 324 321 318 314 311 309 307 304 303 302 301 301 301 301 301 301 301 301 301 301 301 301 301 301 300 300 299 299 299 300 304 308
338 338 339 339 338 337 338 337 336 336 336 336 334 333 333 333 332 331 331 332 332 331 330 329 328 328 327 327 327 326 323 318 314 311 309 307 305 303 302 301 301 301 301 301 301 301 301 300 301 301 300 300 300 300 299 299 299 299 299 299 300 304
338 338 339 339 338 338 338 337 337 337 336 335 334 333 333 333 332 331 331 332 330 329 329 328 328 328 327 327 327 324 319 315 312 310 308 306 303 302 301 300 300 301 301 301 300 300 300 300 300 300 301 300 300 299 299 298 299 298 298 298 298 298

ECMWFFLT2_850_thetae_138.txt.gz
Theta_e
320 320 318 318 318 319 321 324 328 330 332 332 332 332 333 332 331 330 329 327 323 317 313 310 309 310 309 309 312 315 315 314 313 313 313 313 313 312 312 312 312 314 317 317 314 319 327 328 329 331 331 331 331 332 332 333 332 332 333 333 333 333
320 321 319 318 318 319 322 326 329 331 332 332 332 332 332 332 331 329 328 327 322 315 312 310 309 310 309 309 310 313 314 313 312 313 313 312 313 312 313 312 313 316 315 316 314 321 330 329 329 331 330 332 331 332 333 333 333 333 333 333 334 334
321 321 320 318 319 320 323 327 330 331 332 332 332 332 332 331 330 329 328 326 318 313 312 310 309 310 309 308 309 311 313 313 312 312 313 312 312 312 313 313 313 313 313 320 322 324 329 330 330 331 331 332 331 333 334 333 334 334 334 334 334 334
321 321 320 319 320 322 324 327 330 331 332 331 331 331 332 331 331 330 329 323 316 313 311 309 310 310 309 308 308 310 312 313 313 313 313 312 313 312 312 311 312 315 320 327 328 328 330 330 330 331 332 332 332 333 334 334 334 334 334 335 334 334
322 321 320 320 321 323 324 328 331 332 332 331 331 331 332 332 330 328 325 319 314 312 310 309 310 310 309 308 308 309 310 312 312 312 312 311 311 310 311 312 316 324 328 330 330 330 330 329 329 330 332 333 333 334 334 335 335 335 335 335 334 334
321 321 321 321 322 323 325 328 330 331 331 330 331 331 332 330 325 322 319 315 312 310 309 310 310 310 309 309 309 309 309 310 310 311 310 310 312 313 315 320 325 329 330 330 331 330 330 330 331 332 333 333 334 334 334 335 335 335 335 334 334 333
323 322 321 321 322 324 326 328 329 330 330 330 331 332 332 327 319 318 317 314 312 310 311 311 310 310 309 309 310 309 310 310 310 310 310 311 316 319 322 328 330 330 330 331 331 331 331 331 332 332 333 333 334 334 335 335 336 335 334 333 333 332
332 327 324 322 323 324 326 328 329 330 330 331 332 334 334 327 319 318 317 317 317 314 313 313 312 312 312 311 311 310 310 311 310 311 312 315 319 323 326 330 331 331 331 331 332 332 332 331 332 333 333 334 334 334 336 335 335 335 334 332 332 331
338 334 328 325 325 325 326 328 329 330 331 332 334 336 336 329 323 321 319 320 320 316 316 315 314 315 315 315 315 313 312 314 315 314 315 319 323 326 329 331 331 331 331 332 332 332 332 332 332 333 332 333 334 335 336 335 335 334 333 332 331 330
340 339 333 328 327 325 326 329 330 331 332 334 337 338 337 330 325 324 321 321 321 321 324 322 319 320 321 321 320 318 316 318 322 323 322 324 328 330 330 330 331 331 332 333 333 331 331 332 332 332 332 332 334 336 335 335 334 333 332 331 330 329
340 339 335 331 330 327 328 331 332 333 334 336 338 338 337 331 327 327 324 323 325 329 332 330 328 329 329 328 326 323 322 323 326 329 329 329 330 330 330 330 331 332 333 334 333 331 330 332 332 331 332 333 334 335 335 335 333 332 332 331 330 329
340 339 336 333 331 328 331 335 335 335 336 338 338 339 337 331 329 330 326 323 327 331 333 334 333 333 333 333 331 330 329 329 329 330 331 332 331 331 331 331 332 334 334 333 332 331 331 332 331 331 332 332 333 334 334 334 333 332 331 330 329 328
340 340 337 334 331 329 331 335 338 337 337 339 338 339 337 332 331 330 326 324 329 332 333 335 335 335 335 334 333 332 331 331 331 331 331 332 332 332 331 331 333 334 333 331 330 331 331 331 331 332 332 331 332 334 334 334 333 332 330 329 327 327
340 340 338 335 333 332 331 335 339 338 338 339 338 338 338 336 332 327 325 326 330 333 334 336 336 336 335 333 332 332 331 330 331 331 330 331 332 333 333 332 333 332 331 330 330 330 331 332 333 333 333 333 334 334 334 333 331 330 328 328 327 326
340 339 338 336 334 334 333 335 339 339 339 340 338 338 339 340 335 326 325 329 331 332 334 335 334 334 333 332 332 331 331 331 331 332 331 331 332 333 332 331 332 332 331 331 332 332 332 333 334 334 334 334 334 333 332 331 330 328 328 327 326 325
341 339 337 336 335 335 334 335 338 340 339 340 339 339 340 340 335 327 327 330 332 332 333 333 332 332 331 331 331 331 331 332 332 332 332 332 331 331 330 331 333 333 332 332 333 334 334 334 334 334 333 333 333 332 331 330 329 328 328 326 324 324
341 339 337 337 337 337 336 335 338 339 339 340 339 339 340 338 334 330 330 331 332 333 332 333 333 331 331 330 330 330 330 330 330 331 332 332 330 330 331 332 333 333 332 332 333 334 334 334 334 333 333 332 332 331 330 329 328 327 326 324 324 322
341 339 336 337 339 338 337 336 338 340 340 341 339 339 340 337 334 332 333 333 332 333 333 333 333 331 330 330 329 329 329 329 329 330 331 331 330 331 333 333 332 333 332 332 334 334 334 333 333 333 332 332 331 329 329 328 327 325 324 323 321 313
341 339 336 338 339 338 338 337 338 340 341 340 339 339 339 337 335 333 333 333 333 333 333 333 333 332 331 329 328 328 329 329 328 329 331 330 330 332 333 332 331 332 333 334 334 334 333 333 332 332 331 331 330 329 328 327 326 324 321 316 310 303
340 338 336 338 339 338 339 338 338 339 340 339 339 339 338 337 336 334 334 334 334 334 334 333 333 333 331 329 328 328 328 328 328 330 330 329 330 332 332 331 330 331 333 334 334 333 333 332 332 331 331 331 329 329 328 326 325 320 311 304 301 301
340 338 336 338 339 338 338 338 338 339 340 339 339 338 338 337 336 335 335 335 334 334 333 333 332 332 331 330 328 327 327 328 330 331 330 330 330 331 330 329 329 330 332 333 333 333 333 332 331 331 330 330 329 329 327 326 324 312 301 301 301 301
339 338 336 337 339 338 337 337 338 339 339 339 339 337 337 337 336 335 335 335 335 333 333 332 332 331 331 330 327 326 328 330 331 330 330 330 330 329 329 329 328 329 331 332 332 333 333 332 331 331 330 329 329 328 326 327 322 306 301 305 302 300
338 338 337 337 338 337 337 339 339 338 339 339 339 338 337 336 336 335 334 335 334 333 332 332 331 330 330 329 327 327 329 330 330 329 329 329 329 328 328 328 327 327 330 331 331 332 332 331 330 330 330 329 328 328 326 326 319 306 306 307 301 300
335 335 337 337 337 338 339 339 339 338 339 339 339 338 338 337 336 335 335 335 335 333 332 331 330 330 330 329 328 328 329 330 329 329 329 328 327 326 327 327 328 328 330 331 331 331 331 330 329 329 330 329 328 327 327 326 320 310 307 305 301 301
333 333 337 337 337 339 339 339 339 339 339 339 339 338 338 338 337 336 335 335 334 333 332 331 330 329 330 329 329 329 329 329 329 329 328 328 327 327 326 327 329 329 328 329 329 330 328 328 329 329 329 329 328 327 328 328 324 316 309 305 303 303
332 331 336 336 337 339 339 339 339 339 339 339 339 338 337 337 336 335 334 334 334 333 332 331 331 330 330 330 330 330 330 330 330 329 328 327 328 328 328 329 328 328 327 326 328 328 324 323 326 329 330 329 328 328 328 328 325 318 311 309 308 306
334 331 333 335 336 338 339 339 339 339 339 338 338 338 337 336 336 335 334 333 333 333 332 331 331 330 330 330 331 330 330 330 330 329 328 329 329 329 330 329 326 326 326 326 326 327 322 318 322 327 329 329 329 328 329 328 326 320 314 312 311 309
337 333 332 334 336 338 339 339 338 338 338 337 337 337 336 336 336 335 335 334 334 334 332 331 331 331 330 330 331 331 331 331 330 329 329 330 331 330 329 328 326 325 325 324 324 325 323 320 321 324 326 328 329 329 329 329 326 322 317 314 312 309
338 335 333 333 335 337 338 338 338 337 337 336 336 336 336 336 336 336 335 334 334 334 332 331 331 331 330 330 331 331 331 330 330 330 330 331 330 329 329 327 325 324 323 322 322 323 325 324 321 321 321 324 326 328 329 327 325 321 316 314 312 309
339 337 335 333 335 337 337 338 336 335 335 335 336 337 336 336 336 336 335 334 334 334 332 331 330 331 331 331 331 331 331 331 330 330 330 330 330 329 328 326 324 322 320 320 319 321 324 322 317 316 315 316 319 322 324 325 323 319 315 313 310 308
339 338 335 333 335 337 337 336 335 334 334 334 336 337 336 335 335 335 335 335 334 334 332 331 330 330 331 331 331 331 331 331 331 330 329 329 329 328 326 324 323 321 318 317 316 317 319 317 312 311 310 309 311 313 316 319 320 316 313 312 309 307
340 337 333 332 335 337 337 336 336 335 334 334 335 336 335 335 335 335 335 335 335 334 332 331 331 331 331 331 331 330 330 330 330 329 328 329 328 327 325 323 321 318 316 315 314 314 314 311 308 307 306 305 307 308 312 315 315 314 312 311 308 307
339 338 334 332 335 337 337 337 337 336 335 335 336 335 335 334 334 334 334 334 334 333 332 332 331 331 331 332 331 330 330 330 329 328 328 328 328 325 323 320 318 315 314 313 312 311 310 307 304 304 303 303 304 304 308 310 311 311 310 309 308 307
339 339 335 334 335 336 337 337 336 336 336 336 336 336 335 334 334 334 334 334 333 333 332 331 331 331 332 331 330 330 330 330 329 328 328 328 327 323 319 317 315 313 312 311 310 308 305 303 302 303 302 302 302 302 303 304 305 306 307 308 307 307
340 339 336 334 334 335 336 337 337 337 336 337 337 336 335 334 334 334 334 333 333 333 332 331 331 331 331 330 329 329 330 329 328 327 327 326 324 320 317 314 312 311 309 308 306 304 303 302 302 302 302 302 302 302 302 302 302 302 303 307 308 306
340 339 336 333 333 333 335 337 337 337 337 337 337 335 335 335 335 334 334 333 333 333 332 331 331 332 331 330 329 330 330 328 327 326 324 323 321 318 315 312 311 309 307 304 303 302 302 302 302 301 301 301 301 301 301 301 301 301 301 305 307 307
339 338 335 334 334 333 335 337 338 338 338 337 336 336 336 335 335 334 334 333 333 332 331 331 331 332 331 330 330 330 328 326 325 324 323 321 318 316 314 312 310 307 304 303 302 302 301 301 301 301 301 301 301 301 301 300 300 300 300 302 305 307

ECMWFFLT2_850_thetae_141.txt.gz
Theta_e
318 317 318 319 321 322 322 323 324 326 327 329 329 329 328 326 324 322 320 318 315 312 310 310 310 309 311 314 314 315 315 314 314 313 313 312 312 312 312 312 312 314 317 317 317 322 326 328 328 328 329 329 329 330 332 332 333 333 333 333 333 334
319 317 318 319 320 320 322 323 324 325 327 329 330 329 328 326 324 323 322 319 316 312 310 309 310 309 309 312 313 313 314 314 313 313 313 312 312 312 311 312 312 314 317 315 320 327 328 329 330 330 330 331 331 331 332 333 333 333 333 333 334 334
319 318 318 318 319 320 321 322 323 325 327 329 329 328 328 327 325 324 323 320 316 312 311 309 309 310 309 310 313 313 313 313 313 313 313 313 312 312 312 312 312 315 316 314 320 328 328 329 330 330 331 331 331 332 333 333 334 334 334 334 334 333
320 319 318 317 318 319 321 322 323 325 327 328 329 328 327 327 326 325 323 321 316 312 311 309 310 310 309 309 311 313 313 313 313 312 313 312 312 312 312 312 313 314 315 316 319 325 328 329 330 330 331 331 332 333 333 334 334 334 334 334 334 333
321 320 318 318 318 319 320 321 324 325 327 328 328 328 328 327 326 325 324 320 315 311 310 310 310 310 308 308 309 312 313 313 313 312 312 312 312 312 312 313 314 312 317 322 322 324 328 329 330 330 331 332 332 333 333 334 335 335 335 335 334 333
322 321 319 318 318 319 319 321 324 325 326 327 328 329 328 328 327 326 324 319 314 311 310 310 310 310 308 308 308 310 312 313 313 313 312 312 312 312 312 312 312 314 322 328 327 328 329 329 329 330 331 332 332 333 334 335 335 335 335 334 333 332
323 321 319 318 318 318 319 322 324 326 326 327 329 329 328 328 328 325 321 316 312 310 310 310 310 309 308 308 308 309 311 312 313 312 312 312 311 310 310 310 314 321 327 329 330 330 329 329 330 331 332 332 332 334 335 335 335 335 335 333 332 331
323 321 320 319 318 318 319 322 325 326 327 328 329 328 329 328 324 319 316 314 311 309 310 310 310 309 308 308 308 309 310 311 311 311 311 310 310 310 311 314 320 327 329 330 331 330 330 331 331 331 332 332 333 334 335 335 335 335 334 333 331 330
322 321 320 319 318 318 319 323 326 327 327 328 328 328 330 327 318 315 314 312 310 309 310 310 309 309 309 309 309 309 309 310 310 309 310 311 313 317 320 324 328 330 331 331 331 331 332 332 332 332 332 333 333 334 334 334 334 334 334 332 331 330
320 320 320 319 319 319 320 323 326 327 327 328 328 330 331 325 316 314 313 311 310 310 311 311 311 311 309 309 309 310 310 309 310 311 313 318 322 326 329 331 331 331 331 331 332 332 331 331 332 332 333 333 333 333 334 334 334 334 333 332 331 329
325 325 324 321 319 320 322 325 326 328 329 328 329 333 333 326 318 314 314 313 312 312 313 315 317 317 316 313 311 312 312 312 312 315 318 323 327 330 331 331 331 331 331 332 332 333 331 331 332 332 332 333 333 333 333 334 334 334 332 331 330 328
335 335 332 327 321 321 323 326 327 328 329 329 331 335 335 330 320 313 314 314 316 319 318 318 320 323 325 322 319 317 316 317 317 320 323 326 328 330 330 330 330 330 332 333 334 333 331 331 332 332 332 333 332 332 333 334 333 333 332 330 328 327
337 337 337 333 325 322 324 326 328 329 329 330 333 336 336 332 322 314 315 317 321 327 327 326 326 328 330 330 329 326 323 322 324 326 328 329 330 330 330 330 331 332 334 334 333 332 331 331 332 332 333 333 332 332 334 333 333 333 330 328 327 325
336 337 338 336 329 323 324 327 328 330 330 332 335 337 337 333 325 318 317 321 326 330 332 333 333 333 333 333 333 332 330 328 328 330 331 331 331 331 331 331 332 334 335 334 332 331 331 331 332 333 333 332 332 332 333 333 332 330 328 328 326 323
337 338 338 337 332 326 325 327 329 331 332 334 336 337 337 334 327 322 320 322 327 330 332 334 335 335 335 335 334 333 332 331 331 331 331 330 331 331 332 333 334 335 334 332 331 330 331 332 333 334 333 333 333 333 333 332 330 329 328 327 324 323
338 339 339 338 334 329 326 329 331 333 334 336 337 338 337 335 330 326 324 323 326 329 331 333 334 335 335 335 333 332 331 331 331 331 331 331 331 332 333 334 334 334 333 331 331 330 331 333 333 333 333 333 333 333 332 330 329 328 327 324 323 322
339 339 339 337 334 329 327 331 335 336 336 337 337 338 337 336 333 329 326 325 326 329 331 333 334 334 334 333 332 332 332 331 331 332 332 332 332 332 333 334 334 334 333 332 331 331 332 333 334 333 333 333 332 331 330 329 328 327 325 323 322 315
339 339 339 337 333 330 328 331 336 337 338 338 338 338 337 337 335 332 328 326 327 330 332 333 334 334 333 333 332 331 332 332 331 332 332 333 333 332 332 334 334 334 333 332 332 332 333 334 333 333 332 331 330 329 328 327 326 325 324 320 314 305
340 340 339 337 334 331 331 331 335 338 339 339 339 338 337 337 336 334 330 327 328 330 332 333 333 334 333 332 331 331 332 331 331 331 332 333 333 332 333 334 334 334 333 332 332 333 333 333 332 332 330 329 327 327 327 326 326 325 319 310 303 300
340 340 339 338 336 333 333 333 334 337 339 340 339 338 338 337 337 335 332 330 331 331 332 333 333 334 334 332 331 331 331 330 330 330 331 333 332 332 333 334 334 333 333 333 333 333 333 333 331 330 328 326 325 325 326 325 324 319 308 301 300 300
340 340 339 338 337 333 332 333 334 336 339 340 339 339 338 337 337 335 333 333 332 332 333 334 334 334 334 333 331 330 329 330 330 330 332 333 332 333 334 334 333 333 333 333 333 333 333 332 332 329 326 325 324 323 322 321 315 307 301 300 300 300
340 340 339 338 337 335 331 331 333 335 338 339 339 339 338 336 336 336 335 333 332 333 334 335 335 334 334 333 332 330 329 329 330 330 332 332 332 333 334 333 332 332 333 333 333 333 333 332 331 330 328 326 324 320 317 314 306 301 301 302 300 299
340 340 339 339 337 335 333 332 333 335 337 338 339 339 337 336 335 336 335 334 333 334 335 335 335 334 333 333 332 331 329 329 329 330 332 332 331 332 332 332 330 330 332 333 333 333 332 332 331 330 328 327 325 321 315 310 305 302 303 302 300 299
340 340 339 339 338 336 335 335 335 336 336 337 338 338 336 336 336 336 335 334 334 335 336 335 334 333 332 332 331 330 328 328 330 331 332 331 331 332 331 330 329 329 329 331 332 332 332 332 331 330 328 327 326 324 318 310 305 304 303 302 301 300
340 339 339 339 338 336 336 336 337 338 337 337 338 337 337 337 337 336 335 335 334 335 336 335 334 332 332 331 330 329 327 328 330 331 331 331 332 332 331 330 329 329 328 328 330 331 331 331 331 331 329 328 326 325 324 317 310 306 304 304 304 302
340 339 339 339 337 336 337 336 337 337 336 336 337 338 338 338 337 336 335 335 335 335 336 335 334 332 331 331 330 329 328 328 330 331 330 330 331 331 330 330 330 330 329 330 330 330 331 331 331 331 330 329 327 326 326 322 317 310 304 304 306 304
340 339 339 338 337 337 337 337 337 336 334 335 337 338 338 337 336 335 335 335 335 335 335 335 334 332 331 330 330 330 329 329 329 330 330 330 330 330 330 330 330 330 330 330 330 329 330 330 331 331 330 330 329 328 328 325 323 318 309 307 307 306
339 339 338 338 337 336 336 337 337 335 333 334 336 337 338 338 336 335 335 335 335 335 335 334 333 332 331 330 330 329 329 330 330 330 331 330 330 330 331 331 331 331 331 330 328 328 329 329 328 327 327 327 329 329 330 329 328 326 319 313 310 307
339 339 338 338 337 336 336 336 335 335 335 335 336 336 337 337 337 336 336 336 335 335 334 334 333 332 332 331 330 330 330 330 331 331 331 330 330 331 331 331 331 331 329 327 327 327 329 329 327 324 322 323 326 329 330 330 329 328 323 316 312 308
340 339 338 338 337 337 336 335 335 335 336 337 337 337 337 337 337 336 337 336 335 334 334 333 333 332 331 331 330 330 330 331 331 331 331 330 331 331 331 331 330 330 328 326 325 326 326 327 326 325 322 321 323 326 328 329 328 327 323 317 313 309
340 339 337 337 336 336 335 334 335 337 337 337 337 338 338 337 336 336 337 336 335 334 333 333 333 332 331 331 331 330 330 331 331 331 331 330 330 330 330 329 328 328 326 324 323 324 324 323 324 324 320 316 316 318 320 322 323 325 323 319 313 308
340 339 336 334 334 334 334 334 336 337 338 338 337 337 337 336 336 335 336 335 335 334 334 333 333 332 331 331 330 330 330 331 331 331 330 330 330 329 329 329 327 326 324 322 321 320 319 318 319 319 315 311 310 311 312 315 319 322 323 319 312 307
340 338 336 334 333 332 332 334 335 337 338 338 337 337 337 336 335 335 335 335 334 334 333 333 332 332 331 330 330 330 331 331 331 330 330 329 328 328 329 328 327 325 322 319 317 316 314 314 315 314 310 307 306 306 307 311 316 319 318 315 310 307
340 338 336 335 334 331 330 332 335 337 337 338 338 337 337 335 334 334 335 334 334 333 333 332 332 332 331 330 330 330 331 332 331 330 329 328 328 328 328 327 325 322 319 316 314 313 312 311 311 309 306 304 303 303 304 307 312 315 314 311 309 307
339 338 338 337 337 334 330 331 334 336 337 337 337 337 336 334 334 334 334 334 333 333 333 332 332 332 331 331 330 330 331 332 330 329 328 329 329 328 327 326 322 318 315 314 312 311 309 308 306 304 303 303 302 302 302 303 307 310 311 310 309 307
340 339 338 339 339 337 333 331 332 335 336 337 337 336 335 334 334 334 334 334 333 333 333 333 333 332 332 331 330 331 332 331 329 328 328 328 327 326 325 322 317 315 314 312 310 307 305 304 303 302 302 302 302 302 302 302 303 305 306 307 307 307
340 339 339 339 339 338 336 333 332 334 335 336 336 336 335 335 334 335 335 335 334 334 334 333 333 333 332 331 331 331 331 330 329 329 328 326 325 324 322 318 313 313 312 308 305 303 302 302 302 302 302 301 301 301 301 301 301 301 302 304 306 307

ECMWFFLT2_850_thetae_144.txt.gz
Theta_e
318 318 318 319 321 321 322 323 323 324 325 327 327 328 327 324 322 320 318 316 312 310 309 309 309 312 316 317 317 316 316 318 320 317 313 311 311 311 311 311 312 313 317 319 318 319 322 322 321 322 325 326 327 329 331 332 333 333 333 333 334 333
318 318 318 319 320 320 322 322 323 325 326 327 328 328 327 325 324 322 319 317 313 311 309 309 309 310 315 317 317 317 316 316 318 318 314 312 311 311 311 312 312 315 318 319 319 322 326 326 327 328 329 329 329 330 332 332 333 333 333 333 334 332
318 318 319 318 319 320 321 321 323 325 325 326 328 328 327 325 324 322 320 318 314 312 310 309 309 309 312 315 316 316 315 315 316 316 314 312 311 311 311 311 311 316 318 318 321 325 327 328 329 329 330 330 330 331 332 333 333 334 334 334 334 332
319 318 318 318 319 320 321 321 322 324 324 326 327 327 327 326 326 323 321 319 316 313 311 309 309 309 310 314 315 315 315 314 314 314 313 312 311 311 311 311 311 316 318 318 321 325 326 328 329 330 330 330 331 331 332 333 334 334 334 334 334 332
319 319 318 318 319 320 321 321 322 323 324 326 327 326 327 327 327 324 322 320 316 313 311 309 309 309 309 311 314 315 314 313 313 313 313 312 312 312 311 312 313 316 317 315 319 323 325 326 328 330 330 330 331 332 332 333 334 334 335 334 333 332
319 319 318 318 319 319 320 321 321 322 323 325 326 327 327 327 326 324 322 321 316 312 311 309 309 310 308 309 312 314 314 313 313 313 313 313 312 312 312 312 313 316 315 315 318 321 325 327 328 330 330 330 331 332 333 333 334 334 334 334 332 331
318 318 318 318 318 319 320 320 320 321 323 324 325 327 327 327 326 324 322 321 316 312 310 309 309 309 309 307 309 312 314 314 313 312 312 312 312 312 312 312 314 314 314 319 322 323 326 328 329 330 330 331 331 332 333 334 335 334 334 333 331 330
319 319 318 318 317 318 318 318 319 321 322 323 326 328 328 327 326 324 324 321 315 311 309 309 310 309 308 308 308 310 313 314 314 313 312 312 312 312 312 312 312 312 316 323 327 327 329 329 330 331 331 332 332 333 333 334 334 334 333 331 331 330
323 319 319 318 318 318 317 318 318 320 321 323 326 328 328 327 326 326 325 320 313 310 309 309 310 309 308 308 308 309 311 312 313 313 313 312 311 311 310 310 312 316 321 327 329 330 330 330 331 331 332 332 332 333 333 334 334 334 332 331 330 329
329 323 319 319 318 318 318 317 318 319 321 323 326 328 328 327 327 325 321 317 312 310 309 309 309 308 308 308 308 309 309 311 311 312 311 310 310 311 312 315 320 324 327 330 331 331 331 331 331 331 332 332 333 333 332 334 334 333 332 330 329 328
332 327 322 320 319 318 318 318 318 319 320 323 326 329 328 328 326 321 316 314 310 309 309 310 310 309 309 309 309 309 309 309 310 310 311 312 314 318 322 326 328 329 330 331 331 332 332 331 331 332 332 333 334 332 332 334 333 332 331 329 328 326
332 328 323 320 319 319 318 318 318 318 321 324 327 329 328 329 324 317 314 312 309 310 310 310 309 309 309 309 310 310 310 312 313 315 318 321 324 326 329 330 330 330 330 331 332 333 332 331 331 332 333 333 333 331 333 333 332 332 330 328 326 324
330 327 322 319 319 319 318 318 318 318 321 325 328 328 328 329 323 316 313 311 309 311 311 313 314 312 312 312 313 313 314 316 318 321 324 327 328 329 330 330 330 330 330 332 333 333 332 331 331 333 333 333 332 331 333 333 332 331 328 327 324 322
326 324 320 319 318 318 318 317 318 320 322 326 328 328 330 331 325 317 314 313 313 314 315 318 319 319 321 321 321 322 322 321 322 323 326 328 329 330 330 330 331 331 332 334 334 333 332 331 332 332 333 333 332 332 333 333 331 329 328 326 323 321
322 320 319 319 320 320 319 318 319 322 324 327 328 329 332 333 328 319 314 315 317 321 324 323 323 326 328 329 330 331 330 328 327 327 329 330 331 332 332 331 332 332 333 334 333 331 331 332 332 332 333 333 332 332 333 331 329 328 326 324 322 318
321 322 324 326 328 327 322 319 321 324 325 328 329 330 334 335 331 322 315 316 320 326 330 330 330 331 332 334 334 334 334 332 331 330 331 331 331 332 333 333 333 333 334 334 333 331 331 332 332 333 333 333 332 333 332 330 328 326 325 323 318 310
326 329 332 333 334 330 323 321 323 325 326 329 329 331 335 335 333 325 318 318 322 327 330 332 334 333 334 335 335 334 333 333 332 331 332 332 331 332 333 334 334 334 334 334 332 330 331 332 332 333 333 332 333 332 330 328 326 326 324 318 309 302
333 334 335 335 336 332 324 322 325 326 327 329 330 332 335 336 334 328 322 320 322 325 329 331 332 333 334 334 334 333 332 332 332 331 332 332 332 333 333 334 334 334 334 334 332 331 331 332 333 333 333 333 332 330 329 327 325 325 319 308 301 301
335 336 336 337 337 332 325 324 326 328 329 330 330 333 336 336 335 331 326 323 323 325 328 330 331 332 333 333 333 332 331 331 331 331 331 332 332 333 333 333 333 334 334 333 332 331 331 333 333 333 333 331 330 328 326 325 325 322 310 300 300 301
336 337 338 338 337 332 326 325 327 328 330 331 333 335 336 336 335 333 330 327 325 326 327 330 331 332 332 332 333 331 331 330 331 331 331 331 333 333 333 333 333 334 333 333 332 332 333 333 333 333 332 330 327 325 325 325 325 316 303 299 301 300
337 338 338 338 337 333 329 327 326 328 330 333 335 336 336 335 335 335 335 330 326 326 328 331 332 331 332 333 333 332 330 329 329 330 330 332 333 333 333 333 333 333 334 333 332 332 332 332 333 332 330 327 325 324 324 323 317 306 300 300 300 299
337 338 338 338 337 334 332 328 326 329 332 335 336 336 336 335 335 336 336 332 329 329 330 331 332 332 333 333 334 333 331 330 329 330 330 331 332 332 332 333 333 333 333 333 332 332 332 332 332 331 329 326 324 323 321 317 308 300 300 300 299 299
338 339 339 339 338 335 332 329 328 330 334 336 337 337 337 336 336 336 336 333 331 332 333 332 332 333 333 334 334 334 333 331 330 330 330 330 331 331 332 333 333 333 333 332 331 331 332 332 331 330 328 326 324 321 315 309 304 300 300 300 299 299
338 339 339 339 338 335 332 330 330 331 334 337 338 338 337 337 337 336 336 335 334 334 334 333 333 334 334 334 334 334 333 332 330 329 329 330 331 331 331 333 333 332 332 332 331 332 332 332 331 330 328 325 322 319 313 308 303 301 300 300 299 299
338 339 339 339 338 337 334 332 332 333 334 337 339 338 338 337 337 337 336 335 335 335 334 333 334 334 334 333 333 333 332 331 330 329 329 330 332 332 332 333 333 332 331 330 330 331 331 331 331 330 329 327 322 319 318 312 305 303 301 300 300 300
338 339 339 340 339 337 336 334 334 334 335 336 338 338 338 337 337 337 336 336 336 336 334 333 334 335 334 333 332 332 331 330 328 328 329 331 331 331 332 332 332 331 330 330 329 330 330 330 330 329 329 329 326 324 323 316 308 306 303 300 301 300
339 340 340 340 339 338 337 335 334 334 334 335 336 337 336 337 338 337 336 336 336 335 334 333 334 335 335 333 331 331 330 329 328 328 330 331 331 330 332 332 332 331 330 331 330 330 330 330 330 330 329 330 329 328 328 322 316 313 307 303 302 301
339 339 340 340 339 339 338 337 335 334 334 333 334 335 335 336 338 337 335 335 336 335 334 334 334 335 335 333 331 330 329 329 329 329 330 331 331 331 331 331 331 331 331 331 331 331 331 330 330 330 330 330 330 329 329 328 325 322 317 310 304 302
339 340 340 340 339 339 338 338 337 335 335 333 333 334 334 335 337 336 336 336 336 336 335 335 335 335 335 334 332 331 330 329 330 330 330 331 331 331 331 331 331 331 331 331 331 331 331 331 330 330 330 330 330 330 329 328 328 326 324 317 309 304
339 340 341 341 340 339 339 338 337 336 336 333 333 334 333 334 335 336 336 336 336 336 335 335 335 335 335 333 332 331 330 330 330 331 331 331 331 331 331 331 331 332 331 332 331 331 331 330 330 330 330 329 328 328 327 327 326 326 325 321 315 308
340 341 341 341 340 339 339 339 338 337 336 334 332 332 332 333 335 336 336 336 336 336 336 336 335 335 334 333 332 331 330 330 330 331 331 331 331 331 331 331 332 331 331 331 331 330 330 329 329 330 329 327 325 324 325 325 325 325 325 324 319 311
340 341 341 341 340 340 339 339 338 337 336 335 332 331 331 331 334 336 336 336 335 335 336 336 335 334 333 332 332 331 331 330 330 330 331 332 331 331 331 331 330 330 329 329 328 328 327 327 328 328 328 326 323 321 321 322 323 324 325 325 322 314
340 341 342 341 341 340 339 339 337 337 337 336 334 331 330 331 333 334 334 335 335 335 335 335 334 333 332 332 332 331 331 330 330 331 331 331 331 330 330 330 329 329 328 327 326 325 325 325 325 325 325 323 319 316 314 315 318 320 322 323 321 315
340 342 341 341 341 340 339 338 337 337 337 336 335 332 331 332 333 334 334 335 335 334 334 334 334 333 332 332 332 332 331 330 330 331 331 331 330 330 329 329 329 328 327 325 323 322 320 320 319 319 319 317 313 310 308 310 312 316 319 321 319 315
341 342 341 341 341 340 339 338 338 337 337 337 335 333 332 333 333 334 334 335 334 333 333 334 334 334 333 332 332 331 331 330 330 330 331 331 330 329 329 329 328 327 324 322 320 317 315 314 314 313 312 310 307 306 305 306 307 309 315 318 317 314
342 342 341 341 340 340 339 338 338 337 337 337 336 333 333 334 334 334 335 335 334 333 333 334 334 333 333 332 332 332 331 330 330 330 331 330 330 329 329 328 327 324 323 321 318 314 311 311 310 309 308 306 304 303 303 302 303 306 310 314 314 312
342 342 341 340 341 340 339 338 338 337 337 337 335 334 333 333 334 334 335 336 335 333 333 334 334 333 333 332 332 332 331 330 330 330 331 330 329 329 328 326 324 323 322 320 316 312 309 308 306 304 304 303 303 302 302 302 301 302 306 308 310 310